Regional Weather Roundup
Issued by NWS

Home | Current Version | Previous Version | Graphics & Text | Print | Product List | Glossary On
Versions: 1 2 3 4 5 6 7 8 9 10 11 12 13 14 15 16 17 18 19 20 21 22 23 24 25 26 27 28 29 30 31 32 33 34 35 36 37 38 39 40 41 42 43 44 45 46 47 48 49 50
000
ASUS43 KBIS 281102
RWRND

NORTH DAKOTA REGIONAL WEATHER ROUNDUP
NATIONAL WEATHER SERVICE BISMARCK ND
600 AM CDT FRI AUG 28 2015

NOTE: "FAIR" INDICATES FEW OR NO CLOUDS BELOW 12,000 FEET WITH NO
SIGNIFICANT WEATHER AND/OR OBSTRUCTIONS TO VISIBILITY.


NDZ001>003-009>011-017-281200-
NORTHWEST NORTH DAKOTA

CITY           SKY/WX    TMP DP  RH WIND       PRES   REMARKS
WILLISTON      PTCLDY    63  60  90 SW3       29.86S
MINOT          PTCLDY    67  58  72 SW15      29.82S
MINOT AFB      PTCLDY    66  63  91 SW10      29.81R
$$

NDZ018>021-031>035-040>046-281200-
SOUTHWEST NORTH DAKOTA

CITY           SKY/WX    TMP DP  RH WIND       PRES   REMARKS
BISMARCK       PTCLDY    63  60  90 S3        29.91S
DICKINSON      PTCLDY    60  54  80 W6        29.90S
GARRISON         N/A     61  57  87 SW5       29.87F
HETTINGER ARPT PTCLDY    59  55  87 S3        29.96S
$$

NDZ004>008-012>016-024-026-027-054-281200-
NORTHEAST NORTH DAKOTA

CITY           SKY/WX    TMP DP  RH WIND       PRES   REMARKS
GRAND FORKS    MOCLDY    63  62  97 S5        29.87R
GRND FRKS AFB  MOCLDY    63  62  97 S2        29.88R
DEVILS LAKE    MOCLDY    66  55  68 W5        29.86R
$$

NDZ022-023-025-028>030-036>039-047>053-281200-
SOUTHEAST NORTH DAKOTA

CITY           SKY/WX    TMP DP  RH WIND       PRES   REMARKS
FARGO          MOCLDY    66  64  93 S8        29.90S FOG
JAMESTOWN      CLEAR     61  59  93 S8        29.87F
$$




USA.gov is the U.S. government's official web portal to all federal, state and local government web resources and services.